Zurück zum Katalog

CZ-6A DEB

AktivPO
NORAD 64657·DEBRIS·🇨🇳 China

Gestartet Aug 6, 2024 von Taiyuan Satellite Launch Center

Loading…

Nächste Überflüge (nächste 24 Stunden)

TLE

AktuellSource: Space-Track

Epoche: Sep 14, 2026, 05:57 UTC

1 64657U 24140AEX 26257.24836494  .00002547  00000-0  80660-3 0  9992
2 64657  88.3054 197.9316 0040759  87.7947 272.7919 14.39348105 99172

Verfolge CZ-6A DEB in Echtzeit mit AllMySat

Download on the App Store